カタログに戻る

STARLINK-30286

運用中通信VLEO
NORAD 57647·PAYLOAD·🇺🇸 United States

打ち上げ Aug 17, 2023 から Cape Canaveral Space Force Station

Loading…

次のパス (今後24時間)

TLE

最新Source: CelesTrak SupGP

元期: Sep 14, 2026, 20:56 UTC

1 57647C 23122R   26257.87270833 -.00023559  00000+0 -85346-3 0  2570
2 57647  43.0013 103.9737 0001332 272.3804  10.9300 15.27584840    15

AllMySatでSTARLINK-30286をリアルタイム追跡

Download on the App Store